When you browse on this site, cookies collect data to enhance your experience and personalize the content and advertising you see.
Visit our Privacy Policy to learn more. By continuing to use the site, you agree to this use of cookies and data.
  • Em Portugal
  • Lista de países
  • Para 7 dias
  • Temperatura da água
  • Mapas de satélite
  • Mapa do tempo
  • Widgets de tempo
  • user-avatar
    Iniciar Sessão

    Previsão horária em Kachan

    Hoje, 18 Fevereiro, Segunda-feira

    Tempo Temperatura Precipitação Vento Pressão Humidade
    00:00 -4°C° 0 mm 3 m/s 760 mmHg 87%
    01:00 -4°C° 0 mm 2 m/s 761 mmHg 88%
    02:00 -5°C° 0 mm 2 m/s 761 mmHg 92%
    03:00 -5°C° 0 mm 2 m/s 761 mmHg 92%
    04:00 -4°C° 0 mm 1 m/s 762 mmHg 93%
    05:00 -4°C° 0 mm 1 m/s 762 mmHg 93%
    06:00 -4°C° 0 mm 1 m/s 763 mmHg 92%
    07:00 -4°C° 0 mm 1 m/s 763 mmHg 92%
    08:00 -4°C° 0 mm 1 m/s 763 mmHg 89%
    09:00 -3°C° 0 mm 1 m/s 763 mmHg 84%
    10:00 -2°C° 0 mm 1 m/s 763 mmHg 78%
    11:00 -2°C° 0 mm 0 m/s 764 mmHg 73%
    12:00 0°C° 0 mm 1 m/s 763 mmHg 71%
    13:00 0°C° 0 mm 1 m/s 763 mmHg 70%
    14:00 -1°C° 0 mm 2 m/s 763 mmHg 67%
    15:00 -1°C° 0 mm 2 m/s 762 mmHg 72%
    16:00 -2°C° 0 mm 2 m/s 762 mmHg 76%
    17:00 -3°C° 0 mm 2 m/s 761 mmHg 80%
    18:00 -4°C° 0 mm 3 m/s 761 mmHg 79%
    19:00 -4°C° 0 mm 3 m/s 761 mmHg 77%
    20:00 -4°C° 0 mm 3 m/s 760 mmHg 76%
    21:00 -4°C° 0 mm 4 m/s 760 mmHg 76%
    22:00 -4°C° 0 mm 4 m/s 759 mmHg 76%
    23:00 -3°C° 0 mm 4 m/s 759 mmHg 76%

    Amanhã, 19 Fevereiro, Terça-feira

    Tempo Temperatura Precipitação Vento Pressão Humidade
    00:00 -3°C° 0 mm 4 m/s 758 mmHg 78%
    01:00 -4°C° 0 mm 5 m/s 757 mmHg 81%
    02:00 -4°C° 0 mm 5 m/s 757 mmHg 83%
    03:00 -2°C° 0 mm 5 m/s 756 mmHg 85%
    04:00 -2°C° 0 mm 5 m/s 756 mmHg 87%
    05:00 -2°C° 0 mm 5 m/s 755 mmHg 89%
    06:00 -2°C° 0 mm 4 m/s 755 mmHg 90%
    07:00 -1°C° 0 mm 4 m/s 754 mmHg 90%
    08:00 -1°C° 0 mm 4 m/s 754 mmHg 91%
    09:00 0°C° 0 mm 4 m/s 753 mmHg 91%
    10:00 0°C° 0 mm 4 m/s 753 mmHg 91%
    11:00 0°C° 0 mm 4 m/s 752 mmHg 91%
    12:00 0°C° 0 mm 4 m/s 752 mmHg 91%
    13:00 0°C° 0 mm 5 m/s 751 mmHg 90%
    14:00 +1°C° 0 mm 5 m/s 750 mmHg 90%
    15:00 +1°C° 0 mm 5 m/s 749 mmHg 90%
    16:00 +1°C° 0 mm 4 m/s 749 mmHg 89%
    17:00 +1°C° 0 mm 4 m/s 748 mmHg 89%
    18:00 +1°C° 0 mm 4 m/s 747 mmHg 89%
    19:00 +1°C° 0 mm 4 m/s 746 mmHg 89%
    20:00 +1°C° 0 mm 5 m/s 746 mmHg 90%
    21:00 +1°C° 0.3 mm 5 m/s 745 mmHg 90%
    22:00 +1°C° 0.3 mm 4 m/s 745 mmHg 89%
    23:00 +1°C° 0.3 mm 4 m/s 744 mmHg 89%

    Depois de amanhã, 20 Fevereiro, Quarta-feira

    Tempo Temperatura Precipitação Vento Pressão Humidade
    00:00 +1°C° 0.1 mm 4 m/s 744 mmHg 91%
    01:00 +1°C° 0.1 mm 4 m/s 744 mmHg 92%
    02:00 +1°C° 0.1 mm 4 m/s 744 mmHg 93%
    03:00 +1°C° 0.1 mm 4 m/s 744 mmHg 92%
    04:00 +1°C° 0.1 mm 4 m/s 743 mmHg 92%
    05:00 +1°C° 0.1 mm 4 m/s 743 mmHg 91%
    06:00 +1°C° 0.2 mm 4 m/s 743 mmHg 90%
    07:00 +1°C° 0.2 mm 4 m/s 743 mmHg 90%
    08:00 +1°C° 0.2 mm 4 m/s 743 mmHg 89%
    09:00 +1°C° 0.1 mm 4 m/s 743 mmHg 87%
    10:00 +1°C° 0.1 mm 5 m/s 743 mmHg 85%
    11:00 +1°C° 0.1 mm 5 m/s 742 mmHg 82%
    12:00 +1°C° 0.2 mm 5 m/s 742 mmHg 83%
    13:00 +1°C° 0.2 mm 5 m/s 742 mmHg 83%
    14:00 +1°C° 0.2 mm 5 m/s 742 mmHg 83%
    15:00 +1°C° 0.4 mm 5 m/s 742 mmHg 82%
    16:00 -1°C° 0.4 mm 6 m/s 742 mmHg 80%
    17:00 -2°C° 0.4 mm 6 m/s 742 mmHg 78%
    18:00 -2°C° 0.2 mm 6 m/s 743 mmHg 81%
    19:00 -3°C° 0.2 mm 6 m/s 744 mmHg 83%
    20:00 -3°C° 0.2 mm 6 m/s 745 mmHg 85%
    21:00 -4°C° 0.1 mm 6 m/s 745 mmHg 82%
    22:00 -4°C° 0.1 mm 6 m/s 746 mmHg 79%
    23:00 -4°C° 0.1 mm 7 m/s 747 mmHg 77%

    21 Fevereiro, Quinta-feira

    Tempo Temperatura Precipitação Vento Pressão Humidade
    00:00 -6°C° 0 mm 7 m/s 748 mmHg 76%
    01:00 -5°C° 0 mm 6 m/s 748 mmHg 76%
    02:00 -5°C° 0 mm 6 m/s 749 mmHg 75%
    03:00 -7°C° 0.1 mm 7 m/s 750 mmHg 74%
    04:00 -7°C° 0.1 mm 7 m/s 750 mmHg 73%
    05:00 -7°C° 0.1 mm 7 m/s 751 mmHg 71%
    06:00 -8°C° 0 mm 6 m/s 752 mmHg 71%
    07:00 -8°C° 0 mm 6 m/s 753 mmHg 70%
    08:00 -9°C° 0 mm 6 m/s 754 mmHg 69%
    09:00 -8°C° 0 mm 6 m/s 754 mmHg 68%
    10:00 -8°C° 0 mm 6 m/s 755 mmHg 66%
    11:00 -8°C° 0 mm 6 m/s 756 mmHg 65%
    12:00 -7°C° 0 mm 5 m/s 756 mmHg 64%
    13:00 -7°C° 0 mm 5 m/s 757 mmHg 63%
    14:00 -7°C° 0 mm 5 m/s 758 mmHg 62%
    15:00 -7°C° 0 mm 5 m/s 759 mmHg 63%
    16:00 -7°C° 0 mm 5 m/s 759 mmHg 64%
    17:00 -8°C° 0 mm 4 m/s 760 mmHg 65%
    18:00 -8°C° 0 mm 4 m/s 761 mmHg 66%
    19:00 -9°C° 0 mm 4 m/s 762 mmHg 67%
    20:00 -9°C° 0 mm 4 m/s 763 mmHg 68%
    21:00 -9°C° 0 mm 4 m/s 764 mmHg 69%
    22:00 -10°C° 0 mm 4 m/s 764 mmHg 70%
    23:00 -9°C° 0 mm 3 m/s 765 mmHg 72%

    22 Fevereiro, Sexta-feira

    Tempo Temperatura Precipitação Vento Pressão Humidade
    00:00 -9°C° 0 mm 3 m/s 766 mmHg 73%
    01:00 -10°C° 0 mm 3 m/s 767 mmHg 75%
    02:00 -10°C° 0 mm 3 m/s 768 mmHg 77%
    03:00 -10°C° 0 mm 3 m/s 768 mmHg 76%
    04:00 -10°C° 0 mm 3 m/s 769 mmHg 75%
    05:00 -10°C° 0 mm 3 m/s 769 mmHg 74%
    06:00 -10°C° 0 mm 3 m/s 770 mmHg 73%
    07:00 -11°C° 0 mm 4 m/s 770 mmHg 71%
    08:00 -10°C° 0 mm 4 m/s 771 mmHg 70%
    09:00 -9°C° 0 mm 4 m/s 771 mmHg 64%
    10:00 -8°C° 0 mm 5 m/s 772 mmHg 58%
    11:00 -7°C° 0 mm 5 m/s 772 mmHg 53%
    12:00 -7°C° 0 mm 5 m/s 772 mmHg 52%
    13:00 -6°C° 0 mm 5 m/s 772 mmHg 52%
    14:00 -6°C° 0 mm 5 m/s 773 mmHg 51%
    15:00 -5°C° 0 mm 4 m/s 773 mmHg 55%
    16:00 -7°C° 0 mm 4 m/s 773 mmHg 59%
    17:00 -7°C° 0 mm 4 m/s 773 mmHg 63%
    18:00 -7°C° 0 mm 3 m/s 773 mmHg 67%
    19:00 -7°C° 0 mm 3 m/s 774 mmHg 70%
    20:00 -7°C° 0 mm 2 m/s 774 mmHg 74%
    21:00 -7°C° 0 mm 2 m/s 774 mmHg 76%
    22:00 -7°C° 0 mm 1 m/s 774 mmHg 79%
    23:00 -7°C° 0 mm 1 m/s 774 mmHg 81%

    23 Fevereiro, Sábado

    Tempo Temperatura Precipitação Vento Pressão Humidade
    00:00 -7°C° 0 mm 1 m/s 774 mmHg 81%
    01:00 -7°C° 0 mm 1 m/s 773 mmHg 80%
    02:00 -7°C° 0 mm 1 m/s 773 mmHg 80%
    03:00 -8°C° 0 mm 2 m/s 772 mmHg 76%
    04:00 -7°C° 0 mm 2 m/s 771 mmHg 73%
    05:00 -8°C° 0 mm 3 m/s 771 mmHg 69%
    06:00 -8°C° 0.4 mm 3 m/s 770 mmHg 77%
    07:00 -8°C° 0.4 mm 3 m/s 769 mmHg 84%
    08:00 -8°C° 0.4 mm 3 m/s 769 mmHg 92%
    09:00 -8°C° 0.2 mm 4 m/s 768 mmHg 90%
    10:00 -8°C° 0.2 mm 4 m/s 767 mmHg 88%
    11:00 -7°C° 0.2 mm 4 m/s 766 mmHg 86%
    12:00 -7°C° 0.1 mm 4 m/s 766 mmHg 86%
    13:00 -5°C° 0.1 mm 4 m/s 765 mmHg 87%
    14:00 -5°C° 0.1 mm 3 m/s 765 mmHg 87%
    15:00 -4°C° 0.1 mm 3 m/s 765 mmHg 89%
    16:00 -3°C° 0.1 mm 2 m/s 764 mmHg 91%
    17:00 -2°C° 0.1 mm 2 m/s 764 mmHg 93%
    18:00 -2°C° 0 mm 2 m/s 764 mmHg 95%
    19:00 0°C° 0 mm 1 m/s 765 mmHg 96%
    20:00 +1°C° 0 mm 1 m/s 765 mmHg 97%
    21:00 +1°C° 0 mm 1 m/s 765 mmHg 97%
    22:00 -1°C° 0 mm 2 m/s 765 mmHg 97%
    23:00 -1°C° 0 mm 2 m/s 765 mmHg 97%
    Mostrar mais